Change the Weather History Date:

Saturday, January 12, 2013

  Actual Average (KMSL) Record (KMSL)
Temperature  
Mean Temperature 66 °F 41 °F  
Max Temperature 69 °F 50 °F 75 °F (1916)
Min Temperature 64 °F 31 °F -8 °F (1918)
Degree Days  
Heating Degree Days 0 24  
Month to date heating degree days 288  
Since 1 July heating degree days 1524  
Cooling Degree Days 2 0  
Month to date cooling degree days 0  
Year to date cooling degree days 0  
Growing Degree Days 16 (Base 50)    
Moisture  
Dew Point 63 °F    
Average Humidity 88    
Maximum Humidity 100    
Minimum Humidity 73    
Precipitation  
Precipitation 0.00 in 0.14 in 1.75 in (1989)
Month to date precipitation 1.77  
Year to date precipitation 1.77  
Snow  
Snow 0.00 in - - ()
Month to date snowfall  
Since 1 July snowfall  
Snow Depth -    
Sea Level Pressure  
Sea Level Pressure 30.01 in    
Wind  
Wind Speed 10 mph (South)    
Max Wind Speed 20 mph    
Max Gust Speed 28 mph    
Visibility 9 miles    
Events Rain    
T = Trace of Precipitation, MM = Missing Value Source: NWS Daily Summary

Daily Weather History Graph

Daily Weather History Graph

Search for Another Location

Airport or City:

Trip Planner

Search our weather history database for the weather conditions in past years. The results will help you decide how hot, cold, wet, or windy it might be!

Date:

Astronomy

Jan. 12, 2013 Rise Set
Actual Time 6:56 AM CST 4:59 PM CST
Civil Twilight 6:29 AM CST 5:26 PM CST
Nautical Twilight 5:58 AM CST 5:57 PM CST
Astronomical Twilight 5:27 AM CST 6:28 PM CST
Moon 7:19 AM CST (1/12) 6:22 PM CST (1/12)
Length of Visible Light 10h 57m
Length of Day
10h 02m
New Moon, 1% of the Moon is Illuminated
Jan 12
New Moon
Jan 18
First Quarter
Jan 26
Full
Feb 3
Last Quarter
Feb 10
New

Hourly Weather History & Observations

Time (CST) Temp. Dew Point Humidity Pressure Visibility Wind Dir Wind Speed Gust Speed Precip Events Conditions
12:15 AM 66.2 °F 64.4 °F 94% 30.05 in 10.0 mi South 11.5 mph - N/A Rain Light Rain
12:35 AM 66.2 °F 64.4 °F 94% 30.05 in 10.0 mi SSW 10.4 mph - N/A   Overcast
12:55 AM 66.2 °F 64.4 °F 94% 30.06 in 10.0 mi SSW 10.4 mph - N/A   Overcast
1:35 AM 66.2 °F 64.4 °F 94% 30.06 in 10.0 mi South 9.2 mph - N/A   Overcast
1:55 AM 66.2 °F 64.4 °F 94% 30.07 in 10.0 mi SSW 9.2 mph - N/A   Overcast
2:15 AM 66.2 °F 64.4 °F 94% 30.07 in 10.0 mi SSW 10.4 mph - N/A   Overcast
2:35 AM 66.2 °F 64.4 °F 94% 30.06 in 10.0 mi South 11.5 mph - N/A   Overcast
2:55 AM 66.2 °F 64.4 °F 94% 30.05 in 10.0 mi South 9.2 mph - N/A   Overcast
3:15 AM 66.2 °F 66.2 °F 100% 30.04 in 10.0 mi South 10.4 mph - N/A   Overcast
3:35 AM 66.2 °F 66.2 °F 100% 30.04 in 10.0 mi SSW 10.4 mph - N/A   Overcast
3:55 AM 66.2 °F 66.2 °F 100% 30.04 in 10.0 mi SSW 9.2 mph - N/A   Overcast
4:15 AM 66.2 °F 66.2 °F 100% 30.03 in 10.0 mi South 8.1 mph - N/A   Overcast
4:35 AM 66.2 °F 66.2 °F 100% 30.02 in 10.0 mi South 8.1 mph - N/A   Overcast
4:55 AM 66.2 °F 64.4 °F 94% 30.03 in 10.0 mi South 10.4 mph - N/A   Overcast
5:15 AM 68.0 °F 64.4 °F 88% 30.03 in 10.0 mi SSW 11.5 mph - N/A   Overcast
5:35 AM 68.0 °F 64.4 °F 88% 30.03 in 10.0 mi South 11.5 mph - N/A   Overcast
5:55 AM 66.2 °F 64.4 °F 94% 30.03 in 4.0 mi South 12.7 mph - N/A Rain Heavy Rain
6:15 AM 64.4 °F 64.4 °F 100% 30.04 in 5.0 mi SSW 9.2 mph 12.7 mph N/A Rain Heavy Rain
6:35 AM 64.4 °F 64.4 °F 100% 30.04 in 10.0 mi South 4.6 mph - N/A Rain Rain
6:55 AM 64.4 °F 64.4 °F 100% 30.04 in 5.0 mi South 6.9 mph - N/A Rain Light Rain
7:15 AM 64.4 °F 64.4 °F 100% 30.04 in 5.0 mi South 11.5 mph - N/A   Overcast
7:35 AM 64.4 °F 64.4 °F 100% 30.04 in 10.0 mi South 11.5 mph - N/A   Overcast
7:55 AM 66.2 °F 66.2 °F 100% 30.04 in 10.0 mi South 17.3 mph - N/A   Overcast
8:15 AM 66.2 °F 66.2 °F 100% 30.07 in 7.0 mi SW 10.4 mph - N/A   Overcast
8:35 AM 66.2 °F 66.2 °F 100% 30.08 in 7.0 mi SW 9.2 mph - N/A   Overcast
8:55 AM 66.2 °F 66.2 °F 100% 30.08 in 5.0 mi West 5.8 mph - N/A   Overcast
9:15 AM 64.4 °F 64.4 °F 100% 30.09 in 10.0 mi WNW 6.9 mph - N/A   Overcast
9:35 AM 64.4 °F 64.4 °F 100% 30.10 in 5.0 mi WNW 5.8 mph - N/A Rain Rain
9:55 AM 64.4 °F 64.4 °F 100% 30.10 in 4.0 mi NW 3.5 mph - N/A   Drizzle
10:15 AM 64.4 °F 64.4 °F 100% 30.09 in 10.0 mi Calm Calm - N/A   Overcast
10:35 AM 64.4 °F 64.4 °F 100% 30.08 in 7.0 mi SSE 3.5 mph - N/A   Drizzle
11:15 AM 68.0 °F 68.0 °F 100% 30.07 in 7.0 mi SSW 3.5 mph - N/A   Overcast
11:35 AM 68.0 °F 66.2 °F 94% 30.06 in 7.0 mi Calm Calm - N/A Rain Rain
11:55 AM 66.2 °F 66.2 °F 100% 30.05 in 4.0 mi SSW 3.5 mph - N/A Rain Light Rain
12:35 PM 69.8 °F 66.2 °F 88% 30.03 in 10.0 mi South 3.5 mph - N/A   Overcast
12:55 PM 69.8 °F 66.2 °F 88% 30.02 in 10.0 mi South 6.9 mph - N/A   Overcast
1:15 PM 69.8 °F 66.2 °F 88% 30.00 in 10.0 mi SSE 6.9 mph - N/A   Overcast
1:35 PM 69.8 °F 66.2 °F 88% 30.00 in 10.0 mi South 10.4 mph - N/A   Overcast
1:55 PM 69.8 °F 66.2 °F 88% 29.99 in 10.0 mi South 11.5 mph 17.3 mph N/A   Overcast
2:15 PM 69.8 °F 64.4 °F 83% 29.99 in 10.0 mi South 10.4 mph 16.1 mph N/A   Overcast
2:35 PM 69.8 °F 64.4 °F 83% 29.99 in 10.0 mi South 6.9 mph 10.4 mph N/A   Overcast
2:55 PM 69.8 °F 64.4 °F 83% 29.98 in 10.0 mi South 12.7 mph - N/A   Overcast
3:15 PM 69.8 °F 64.4 °F 83% 29.98 in 10.0 mi South 9.2 mph - N/A   Overcast
3:35 PM 69.8 °F 62.6 °F 78% 29.99 in 10.0 mi South 17.3 mph 21.9 mph N/A   Overcast
3:55 PM 69.8 °F 62.6 °F 78% 29.98 in 10.0 mi SSE 10.4 mph - N/A   Overcast
4:15 PM 69.8 °F 62.6 °F 78% 29.98 in 10.0 mi South 11.5 mph 18.4 mph N/A   Overcast
4:35 PM 69.8 °F 62.6 °F 78% 29.97 in 10.0 mi South 10.4 mph - N/A   Overcast
4:55 PM 68.0 °F 62.6 °F 83% 29.95 in 10.0 mi South 12.7 mph 17.3 mph N/A   Overcast
5:15 PM 68.0 °F 60.8 °F 78% 29.95 in 10.0 mi South 16.1 mph - N/A   Overcast
5:35 PM 68.0 °F 60.8 °F 78% 29.96 in 10.0 mi South 9.2 mph - N/A   Mostly Cloudy
5:55 PM 68.0 °F 60.8 °F 78% 29.98 in 10.0 mi South 13.8 mph 20.7 mph N/A   Overcast
6:15 PM 68.0 °F 60.8 °F 78% 29.96 in 10.0 mi South 10.4 mph - N/A   Overcast
6:35 PM 68.0 °F 60.8 °F 78% 29.96 in 10.0 mi South 10.4 mph - N/A   Overcast
6:55 PM 68.0 °F 60.8 °F 78% 29.95 in 10.0 mi SSE 12.7 mph 17.3 mph N/A   Overcast
7:15 PM 68.0 °F 60.8 °F 78% 29.94 in 10.0 mi South 11.5 mph - N/A   Overcast
7:35 PM 68.0 °F 60.8 °F 78% 29.94 in 10.0 mi South 15.0 mph 20.7 mph N/A   Overcast
7:55 PM 68.0 °F 60.8 °F 78% 29.93 in 10.0 mi South 16.1 mph - N/A   Mostly Cloudy
8:15 PM 68.0 °F 60.8 °F 78% 29.93 in 10.0 mi South 15.0 mph 23.0 mph N/A   Scattered Clouds
8:35 PM 68.0 °F 60.8 °F 78% 29.93 in 10.0 mi South 17.3 mph 23.0 mph N/A   Scattered Clouds
8:55 PM 68.0 °F 59.0 °F 73% 29.92 in 10.0 mi South 19.6 mph 26.5 mph N/A   Scattered Clouds
9:15 PM 68.0 °F 59.0 °F 73% 29.93 in 10.0 mi South 16.1 mph 26.5 mph N/A   Clear
9:35 PM 68.0 °F 59.0 °F 73% 29.93 in 10.0 mi South 17.3 mph 24.2 mph N/A   Scattered Clouds
9:55 PM 68.0 °F 59.0 °F 73% 29.93 in 10.0 mi South 16.1 mph 26.5 mph N/A   Overcast
10:15 PM 68.0 °F 59.0 °F 73% 29.93 in 10.0 mi SSW 15.0 mph 25.3 mph N/A   Overcast
10:35 PM 68.0 °F 59.0 °F 73% 29.93 in 10.0 mi South 17.3 mph 25.3 mph N/A   Mostly Cloudy
10:55 PM 68.0 °F 59.0 °F 73% 29.92 in 10.0 mi South 11.5 mph 27.6 mph N/A   Scattered Clouds
11:15 PM 66.2 °F 59.0 °F 78% 29.92 in 10.0 mi South 15.0 mph 23.0 mph N/A   Clear
11:35 PM 66.2 °F 59.0 °F 78% 29.91 in 10.0 mi South 13.8 mph 26.5 mph N/A   Clear
11:55 PM 64.4 °F 59.0 °F 83% 29.91 in 10.0 mi South 16.1 mph 23.0 mph N/A   Clear